This demonstration page uses our WeatherBlox Daily Observations layout. Learn more.

Left ArrowRight Arrow

Hourly Observations for November 13, 2020

Temp ( °F °C ) Dew Point ( °F °C ) Humidity (%) Winds ( mph kmh ) Pressure ( in mb ) Visibility ( mi km ) Precip ( " mm )
12:52 am 00:52 Clear 24 -4.4 19 -7.2 81 81 Calm 30.30 1026 10 16 0.00 0.00
1:52 am 01:52 Clear 22 -5.6 19 -7.2 89 89 SE 7 11 30.31 1027 10 16 0.00 0.00
2:52 am 02:52 Clear 22 -5.6 18 -7.8 85 85 SSE 3 6 30.32 1027 10 16 0.00 0.00
3:52 am 03:52 Clear 21 -6.1 18 -7.8 88 88 SE 3 6 30.31 1026 10 16 0.00 0.00
4:52 am 04:52 Clear 21 -6.1 18 -7.8 88 88 SE 3 6 30.30 1026 10 16 0.00 0.00
5:52 am 05:52 Clear 21 -6.1 18 -7.8 88 88 SE 6 9 30.30 1026 10 16 0.00 0.00
6:52 am 06:52 Clear 20 -6.7 17 -8.3 89 89 SSE 8 13 30.30 1026 10 16 0.00 0.00
7:52 am 07:52 Sunny 22 -5.6 20 -6.7 92 92 SSE 9 15 30.32 1027 10 16 0.00 0.00
8:52 am 08:52 Sunny 26 -3.3 22 -5.6 84 84 SSE 8 13 30.32 1027 10 16 0.00 0.00
9:52 am 09:52 Sunny 31 -0.6 23 -5 72 72 S 12 19 30.31 1026 10 16 0.00 0.00
10:52 am 10:52 Sunny 35 1.7 23 -5 61 61 S 14 22 30.27 1025 10 16 0.00 0.00
11:52 am 11:52 Sunny 39 3.9 22 -5.6 50 50 S 14 22 30.23 1024 10 16 0.00 0.00
12:52 pm 12:52 Mostly Sunny 41 5 22 -5.6 47 47 S 17 28 30.17 1022 10 16 0.00 0.00
1:52 pm 13:52 Mostly Sunny 43 6.1 21 -6.1 42 42 S 18 30 30.12 1020 10 16 0.00 0.00
2:52 pm 14:52 Mostly Sunny 44 6.7 22 -5.6 41 41 S 20 31 30.08 1019 10 16 0.00 0.00
3:52 pm 15:52 Sunny 44 6.7 22 -5.6 41 41 SSE 20 31 30.04 1017 10 16 0.00 0.00
4:52 pm 16:52 Mostly Sunny 42 5.6 22 -5.6 45 45 SSE 18 30 30.03 1017 10 16 0.00 0.00
5:52 pm 17:52 Clear 40 4.4 21 -6.1 47 47 S 16 26 30.02 1017 10 16 0.00 0.00
6:52 pm 18:52 Clear 39 3.9 21 -6.1 48 48 S 12 19 30.00 1016 10 16 0.00 0.00
7:52 pm 19:52 Clear 38 3.3 21 -6.1 51 51 S 15 24 29.99 1016 10 16 0.00 0.00
8:52 pm 20:52 Clear 36 2.2 22 -5.6 57 57 SSE 15 24 29.96 1015 10 16 0.00 0.00
9:52 pm 21:52 Clear 36 2.2 22 -5.6 57 57 S 14 22 29.94 1014 10 16 0.00 0.00
10:52 pm 22:52 Clear 35 1.7 22 -5.6 59 59 S 12 19 29.92 1013 10 16 0.00 0.00
11:52 pm 23:52 Clear 34 1.1 23 -5 64 64 SSE 14 22 29.88 1012 10 16 0.00 0.00

Powered by AerisWeather